Powrót do katalogu

STARLINK-30157

AktywnyŁącznośćVLEO
NORAD 57512·PAYLOAD·🇺🇸 United States

Wystrzelony Aug 7, 2023 z Cape Canaveral Space Force Station

Loading…

Następne Przeloty (najbliższe 24 godziny)

TLE

ŚwieżeSource: CelesTrak SupGP

Epoka: Sep 14, 2026, 21:47 UTC

1 57512C 23113T   26257.90812500 -.00078730  00000+0 -28505-2 0  2572
2 57512  43.0026   1.6716 0001752 269.2698 132.3438 15.27630213    10

Śledź STARLINK-30157 w czasie rzeczywistym z AllMySat

Download on the App Store